TimeEST,TemperatureF,Dew PointF,Humidity,Sea Level PressureIn,VisibilityMPH,Wind Direction,Wind SpeedMPH,Gust SpeedMPH,PrecipitationIn,Events,Conditions,WindDirDegrees,DateUTC
12:52 AM,21.0,18.0,88,30.30,10.0,Calm,Calm,-,N/A,,Clear,0,2011-12-02 05:52:00
1:52 AM,19.0,17.1,92,30.30,10.0,Calm,Calm,-,N/A,,Clear,0,2011-12-02 06:52:00
2:52 AM,19.9,17.1,89,30.30,10.0,Calm,Calm,-,N/A,,Mostly Cloudy,0,2011-12-02 07:52:00
3:52 AM,19.0,17.1,92,30.29,10.0,Calm,Calm,-,N/A,,Clear,0,2011-12-02 08:52:00
4:52 AM,23.0,21.0,92,30.29,10.0,Calm,Calm,-,N/A,,Overcast,0,2011-12-02 09:52:00
7:52 AM,21.0,18.0,88,30.30,10.0,Calm,Calm,-,N/A,,Clear,0,2011-12-02 12:52:00
8:52 AM,27.0,21.9,81,30.30,10.0,NNW,3.5,-,0.00,,Clear,340,2011-12-02 13:52:00
10:52 AM,33.1,25.0,72,30.27,10.0,Calm,Calm,-,N/A,,Clear,0,2011-12-02 15:52:00
11:52 AM,36.0,24.1,62,30.25,10.0,Calm,Calm,-,N/A,,Mostly Cloudy,0,2011-12-02 16:52:00
12:52 PM,37.0,25.0,62,30.24,10.0,NNW,3.5,-,N/A,,Mostly Cloudy,340,2011-12-02 17:52:00
1:52 PM,37.0,25.0,62,30.25,10.0,Calm,Calm,-,N/A,,Overcast,0,2011-12-02 18:52:00
2:52 PM,36.0,27.0,70,30.26,10.0,SE,4.6,-,N/A,,Overcast,130,2011-12-02 19:52:00
3:52 PM,36.0,28.9,76,30.28,10.0,South,4.6,-,N/A,,Overcast,180,2011-12-02 20:52:00
4:21 PM,35.6,30.2,81,30.24,9.0,Calm,Calm,-,0.00,,Overcast,0,2011-12-02 21:21:00
4:52 PM,34.0,30.0,85,30.30,9.0,North,5.8,-,0.00,,Overcast,360,2011-12-02 21:52:00
5:04 PM,33.8,30.2,87,30.26,2.5,North,4.6,-,0.00,Snow,Light Snow,10,2011-12-02 22:04:00
5:13 PM,33.8,30.2,87,30.26,5.0,North,3.5,-,0.00,Snow,Light Snow,10,2011-12-02 22:13:00
5:52 PM,34.0,30.0,85,30.33,10.0,Calm,Calm,-,0.00,,Overcast,0,2011-12-02 22:52:00
6:27 PM,33.8,30.2,87,30.29,10.0,Calm,Calm,-,N/A,,Overcast,0,2011-12-02 23:27:00
6:52 PM,32.0,30.0,92,30.35,10.0,Calm,Calm,-,N/A,,Overcast,0,2011-12-02 23:52:00
7:33 PM,33.8,30.2,87,30.32,10.0,Calm,Calm,-,N/A,,Overcast,0,2011-12-03 00:33:00
7:52 PM,33.1,30.0,89,30.38,10.0,Calm,Calm,-,N/A,,Overcast,0,2011-12-03 00:52:00
8:52 PM,35.1,28.9,78,30.40,6.0,WNW,8.1,-,0.00,Snow,Light Snow,290,2011-12-03 01:52:00
9:52 PM,34.0,28.9,82,30.43,10.0,Calm,Calm,-,0.00,,Overcast,0,2011-12-03 02:52:00
10:37 PM,33.8,28.4,81,30.40,10.0,Calm,Calm,-,N/A,,Overcast,0,2011-12-03 03:37:00
11:29 PM,33.8,28.4,81,30.43,10.0,Calm,Calm,-,0.00,,Overcast,0,2011-12-03 04:29:00
11:38 PM,33.8,28.4,81,30.44,10.0,Calm,Calm,-,0.00,,Overcast,0,2011-12-03 04:38:00
11:52 PM,34.0,28.0,79,30.48,10.0,NNW,4.6,-,0.00,,Overcast,330,2011-12-03 04:52:00